Wind_Speed
6 6 6 6 7 7 7 7 7 7 8 8 8 8 8 9 9 10 10 10 11 11 12 13 13 14 15 16 16 16 16 15 16 16 16 16 17 17 17 16 17 17 17
6 6 6 7 7 7 7 7 8 8 8 8 8 9 9 10 10 11 11 12 11 11 12 13 13 14 14 15 15 16 16 16 17 16 17 17 16 16 16 16 17 17 17
7 7 7 7 8 8 9 9 9 9 9 9 9 10 10 10 11 12 12 13 12 12 13 13 13 13 14 15 15 16 15 15 16 16 16 16 16 16 16 17 17 17 17
8 8 9 9 9 9 10 10 10 10 11 11 11 11 11 11 12 12 13 13 13 13 13 13 13 14 13 14 14 15 14 15 15 15 15 16 16 16 16 16 16 16 17
9 9 9 10 10 10 10 11 11 11 12 12 12 12 12 12 12 12 13 13 13 13 13 13 13 13 13 13 13 14 14 14 14 14 15 16 16 17 17 17 17 17 18
9 10 10 10 10 11 11 11 11 12 12 12 12 12 12 13 13 13 13 14 14 14 14 14 14 14 14 14 14 14 14 14 14 15 16 16 16 17 18 18 19 19 19
10 10 10 10 11 11 11 12 12 13 13 13 13 13 13 13 14 14 14 14 14 14 14 14 14 15 15 15 15 15 15 16 15 16 16 17 17 17 18 19 20 20 20
10 11 12 12 11 11 12 12 12 13 13 14 14 14 14 15 15 15 15 15 14 14 14 15 15 15 16 16 17 17 17 17 17 17 17 18 18 18 19 20 20 20 21
11 12 12 12 12 12 13 13 13 14 14 15 14 14 15 15 15 15 16 16 16 16 16 16 16 16 17 17 18 18 18 18 18 18 19 19 19 19 19 19 19 19 20
12 13 13 13 13 14 14 14 14 15 16 16 16 16 16 16 15 15 15 16 16 17 17 17 17 17 17 18 19 19 20 20 19 19 19 20 20 20 19 19 20 19 19
13 13 13 14 15 15 15 15 15 16 16 16 17 16 16 16 16 16 15 16 16 17 17 17 17 17 18 18 19 19 19 19 19 20 20 20 20 20 20 19 19 19 19
14 14 14 15 16 16 16 16 16 17 17 17 18 18 18 18 17 17 16 16 16 17 17 17 17 18 19 19 20 19 19 20 20 20 20 20 20 21 21 20 20 19 19
15 15 15 16 16 16 17 17 17 17 17 18 18 18 18 18 18 18 18 17 18 18 18 18 19 19 20 20 20 20 20 20 20 20 20 20 21 21 21 21 21 20 20
16 16 16 16 16 17 17 17 17 18 18 18 19 19 19 18 18 18 18 18 18 19 19 19 19 19 19 20 20 20 21 20 20 20 21 21 21 21 21 21 21 21 21
17 17 16 16 17 17 17 18 18 19 19 19 19 18 18 18 18 17 17 18 18 18 19 19 20 20 19 19 20 20 20 21 21 21 21 21 21 21 21 21 21 21 21
17 17 17 17 17 17 18 18 19 19 19 19 18 18 18 18 18 18 18 19 19 19 19 20 20 20 20 20 20 20 20 21 21 21 21 22 22 22 22 22 22 22 22
18 18 17 18 18 18 18 19 19 19 19 19 19 19 19 19 19 19 19 19 19 19 19 20 20 20 20 20 20 20 21 21 21 21 21 21 21 21 21 21 22 23 23
19 18 18 19 19 19 19 19 19 20 20 20 19 19 20 20 19 19 20 20 20 20 20 20 20 21 21 21 21 21 21 22 22 21 21 21 21 22 22 22 22 22 23
20 20 20 20 20 20 20 20 20 21 20 20 20 19 19 19 19 20 20 20 20 20 20 21 20 21 21 22 22 21 21 22 23 22 22 21 21 22 22 22 22 23 23
22 21 21 21 21 21 21 21 22 21 21 20 20 20 19 19 20 20 21 20 20 20 20 21 21 21 21 22 22 23 22 23 22 22 22 22 22 22 22 22 23 23 24
23 23 22 22 22 22 22 22 21 21 21 21 20 20 20 20 21 21 21 21 22 21 22 22 22 22 22 22 22 23 23 22 22 22 22 22 22 23 22 23 23 24 24
25 24 24 24 23 23 23 22 22 21 21 21 22 21 21 22 22 22 22 22 22 23 23 23 23 23 23 23 23 23 22 22 22 22 22 22 22 23 24 24 24 24 24
26 26 25 25 25 24 23 23 22 22 22 22 22 22 22 22 23 23 23 24 24 24 24 24 23 23 23 23 23 23 23 23 22 22 22 22 23 24 24 24 25 25 25
28 27 26 26 26 25 25 24 24 24 24 24 24 24 23 23 24 24 24 25 25 25 25 24 23 23 23 23 23 23 23 23 23 23 23 23 24 24 25 26 26 27 27
29 29 28 27 27 26 26 26 26 26 25 25 25 25 25 25 25 25 25 25 25 25 25 24 24 24 24 24 24 24 24 24 24 24 24 24 25 25 26 26 27 27 27
31 30 28 28 28 28 27 27 27 26 26 26 26 26 26 26 26 26 26 25 25 25 25 25 25 25 25 26 26 25 25 26 26 26 26 26 26 26 26 26 27 27 27
Wind_Direction
278 282 283 278 275 272 271 271 271 268 270 271 270 270 270 270 270 271 271 271 273 271 270 269 266 264 267 266 266 264 268 266 266 264 263 263 264 266 268 268 266 266 266
283 285 286 282 276 277 278 276 277 276 274 277 279 278 277 273 271 271 269 271 272 270 270 270 269 269 270 270 270 269 269 266 265 264 266 266 266 266 266 266 266 266 267
284 285 286 285 281 279 281 282 281 281 280 282 282 279 278 275 273 271 270 273 271 272 270 269 268 271 272 272 271 271 270 269 267 265 263 264 266 267 266 265 263 265 267
285 287 287 286 285 284 283 282 281 282 283 282 280 278 280 281 277 273 270 269 271 275 277 276 276 276 276 276 276 271 270 271 269 266 264 267 267 267 265 264 266 267 269
289 290 289 286 285 284 284 285 283 282 281 279 279 278 278 280 281 277 275 272 271 273 275 276 277 278 280 281 279 275 272 272 271 267 269 270 268 267 264 266 268 269 272
291 291 290 288 287 285 284 285 284 282 281 281 280 280 280 281 282 279 277 276 273 275 274 273 273 274 276 277 277 275 275 273 272 272 269 267 265 266 269 272 271 271 273
288 289 289 288 287 285 283 283 284 284 284 283 283 283 284 283 282 279 279 280 280 279 277 275 273 273 273 274 276 276 275 272 272 274 271 272 273 274 274 273 272 273 275
289 287 289 289 288 286 284 283 284 285 284 285 285 285 285 285 283 280 280 281 280 279 278 276 274 273 272 272 272 274 274 275 273 274 273 274 276 279 276 276 276 275 275
289 288 288 288 287 287 285 284 285 285 285 286 285 286 286 284 283 281 280 279 279 279 278 275 274 274 273 273 274 275 276 275 274 274 274 275 275 277 277 278 278 279 277
287 287 286 288 289 289 288 288 287 287 287 287 287 287 287 286 283 284 283 280 278 278 278 277 276 276 275 274 275 275 275 275 274 273 273 274 275 276 277 278 278 277 277
286 287 287 288 290 290 289 290 290 290 289 288 289 289 288 286 285 284 283 282 280 279 278 278 278 279 278 277 277 277 277 276 275 273 272 272 274 276 276 278 278 277 276
284 286 286 288 290 290 289 289 289 290 290 290 291 290 289 287 285 284 283 281 280 279 278 278 279 279 278 278 277 278 278 278 276 273 271 272 274 276 277 278 278 277 277
283 286 287 289 290 290 289 288 288 290 290 291 291 291 289 287 285 283 283 282 281 280 279 278 279 279 279 280 280 279 279 280 279 276 275 274 274 275 277 277 275 273 275
283 286 287 289 290 289 288 288 288 289 289 290 290 290 288 287 286 284 282 282 281 280 280 281 281 282 282 280 279 278 278 279 279 278 277 276 274 274 274 275 273 272 272
282 284 285 287 287 288 288 288 289 289 289 289 289 289 287 287 286 284 283 283 283 281 280 280 281 283 283 280 279 279 278 278 278 276 276 275 273 273 274 274 272 271 271
280 282 283 286 287 287 287 288 290 290 289 288 287 288 287 286 284 282 282 284 284 283 282 280 280 281 281 280 279 280 280 279 279 277 277 274 273 273 273 272 272 271 272
278 281 284 286 288 288 288 289 290 290 290 288 287 288 287 287 286 284 283 284 284 283 283 282 281 281 281 282 281 282 282 281 280 279 278 277 275 274 274 273 272 271 272
276 279 283 285 287 289 289 289 289 288 289 289 288 287 287 287 287 285 284 284 284 285 285 284 282 281 281 282 282 282 281 282 282 280 279 277 277 276 275 274 274 272 271
276 277 280 283 286 288 289 289 289 289 289 288 287 288 288 287 287 286 285 284 284 285 286 285 283 282 282 281 281 282 282 283 282 280 277 277 277 276 275 275 274 274 273
275 278 278 280 282 285 286 287 288 288 288 287 287 287 288 288 287 287 286 285 285 285 286 285 283 282 283 282 281 282 283 283 283 280 277 276 277 277 277 277 276 276 274
274 276 277 278 280 282 284 285 286 286 285 284 284 285 286 287 286 287 287 286 285 285 286 285 283 282 282 283 283 283 284 284 284 282 278 276 276 276 276 277 276 275 275
271 274 276 278 278 280 281 283 284 284 283 283 283 284 285 286 286 288 287 287 285 285 286 284 282 281 281 281 282 282 284 283 283 283 281 277 277 277 276 277 278 277 275
272 272 274 276 277 278 279 280 281 282 282 282 283 283 284 285 285 285 286 287 286 286 286 285 283 282 280 281 282 284 283 282 282 283 281 277 277 278 277 279 280 278 277
274 274 274 276 277 279 279 280 280 280 280 281 282 283 283 284 284 285 285 285 285 285 284 283 282 282 281 282 283 284 284 283 282 282 281 279 279 280 279 279 279 280 279
273 273 273 274 276 277 277 279 280 280 280 280 282 283 284 283 284 284 284 285 285 284 284 283 283 284 283 282 282 284 282 280 282 281 281 280 279 280 281 280 281 281 282
272 273 272 273 274 274 275 276 277 278 279 281 282 283 284 283 284 284 284 284 284 283 282 282 283 283 282 282 282 283 282 281 281 281 280 280 280 281 282 282 283 284 283
Height
5854 5854 5854 5853 5853 5853 5853 5853 5853 5852 5852 5852 5852 5851 5851 5851 5851 5851 5851 5851 5851 5851 5851 5851 5851 5851 5851 5851 5851 5851 5851 5852 5852 5853 5853 5853 5854 5854 5854 5855 5855 5855 5855
5853 5852 5852 5852 5852 5852 5852 5851 5851 5851 5850 5850 5850 5850 5849 5849 5849 5849 5849 5849 5849 5848 5848 5848 5848 5848 5848 5848 5848 5848 5848 5848 5849 5849 5849 5850 5850 5850 5851 5851 5851 5851 5851
5851 5851 5851 5850 5850 5850 5849 5849 5849 5849 5849 5848 5848 5848 5847 5847 5847 5846 5846 5846 5846 5846 5845 5845 5845 5845 5845 5845 5844 5844 5844 5844 5845 5845 5845 5846 5846 5846 5846 5846 5847 5847 5847
5849 5849 5849 5848 5848 5847 5847 5847 5846 5846 5846 5845 5845 5845 5844 5844 5844 5843 5843 5843 5843 5842 5842 5842 5842 5841 5841 5841 5841 5841 5841 5841 5841 5841 5842 5842 5842 5842 5842 5842 5842 5843 5843
5847 5847 5846 5846 5845 5845 5845 5844 5844 5844 5843 5843 5842 5842 5841 5841 5841 5840 5840 5840 5839 5839 5839 5839 5839 5838 5838 5838 5838 5838 5838 5838 5838 5838 5838 5838 5838 5838 5838 5838 5838 5838 5839
5845 5844 5844 5843 5843 5842 5842 5842 5841 5841 5840 5840 5839 5839 5838 5838 5837 5837 5836 5836 5836 5835 5835 5835 5835 5835 5835 5835 5835 5835 5834 5834 5834 5834 5834 5834 5834 5834 5834 5834 5834 5834 5834
5842 5842 5841 5841 5840 5840 5839 5839 5838 5838 5837 5837 5836 5836 5835 5834 5833 5833 5832 5832 5832 5831 5831 5831 5831 5831 5831 5831 5831 5831 5831 5831 5831 5830 5830 5830 5829 5830 5830 5830 5830 5829 5829
5840 5839 5838 5838 5837 5837 5836 5836 5835 5834 5833 5833 5833 5832 5831 5831 5829 5829 5828 5828 5827 5827 5827 5827 5827 5827 5827 5827 5827 5827 5827 5826 5826 5826 5826 5825 5825 5825 5825 5825 5824 5824 5824
5837 5836 5835 5835 5834 5834 5833 5832 5831 5831 5830 5829 5829 5828 5827 5827 5825 5825 5824 5823 5823 5823 5823 5822 5822 5822 5822 5822 5822 5822 5822 5822 5821 5821 5821 5821 5820 5820 5820 5820 5819 5819 5818
5833 5833 5832 5831 5831 5830 5829 5829 5828 5827 5826 5825 5824 5823 5823 5822 5821 5821 5820 5819 5818 5818 5818 5818 5818 5817 5818 5818 5817 5817 5817 5816 5816 5816 5816 5815 5815 5815 5815 5814 5814 5813 5813
5830 5829 5828 5828 5827 5826 5825 5824 5823 5823 5822 5821 5820 5819 5818 5817 5816 5816 5815 5815 5814 5813 5813 5813 5813 5812 5812 5812 5812 5811 5811 5811 5811 5810 5810 5810 5810 5809 5809 5809 5808 5808 5807
5826 5826 5825 5824 5823 5822 5821 5820 5819 5818 5817 5816 5815 5814 5813 5812 5811 5811 5810 5810 5809 5809 5808 5808 5808 5807 5807 5807 5806 5806 5805 5805 5805 5805 5805 5804 5804 5804 5803 5803 5802 5802 5802
5823 5822 5821 5820 5819 5818 5817 5816 5815 5813 5812 5811 5810 5808 5807 5806 5806 5805 5805 5804 5804 5803 5803 5803 5802 5802 5802 5801 5801 5800 5800 5799 5799 5799 5799 5798 5798 5798 5798 5797 5797 5797 5797
5819 5818 5817 5816 5815 5814 5813 5812 5810 5809 5808 5806 5805 5803 5802 5801 5800 5800 5799 5799 5798 5798 5797 5797 5796 5796 5796 5795 5795 5794 5794 5794 5793 5793 5792 5792 5792 5792 5792 5792 5791 5791 5791
5814 5814 5813 5812 5811 5809 5808 5807 5805 5804 5803 5801 5800 5798 5797 5796 5795 5795 5794 5793 5793 5793 5792 5791 5791 5790 5790 5789 5789 5788 5788 5788 5787 5787 5786 5786 5786 5786 5786 5786 5786 5786 5785
5810 5809 5808 5807 5806 5805 5803 5802 5800 5799 5797 5796 5795 5793 5792 5791 5790 5789 5789 5788 5787 5787 5786 5786 5785 5784 5784 5783 5783 5782 5782 5781 5781 5780 5780 5780 5780 5780 5780 5780 5780 5780 5779
5805 5804 5803 5802 5801 5800 5798 5797 5795 5793 5792 5790 5789 5788 5787 5786 5785 5784 5783 5782 5782 5781 5780 5780 5779 5778 5778 5777 5777 5776 5776 5775 5774 5773 5773 5773 5773 5773 5773 5774 5773 5773 5773
5799 5799 5798 5797 5795 5794 5793 5791 5789 5788 5786 5785 5783 5782 5781 5780 5779 5778 5777 5776 5775 5775 5774 5773 5773 5772 5772 5771 5771 5770 5769 5768 5768 5767 5767 5767 5767 5767 5767 5767 5767 5767 5766
5793 5793 5792 5791 5790 5789 5787 5786 5784 5782 5781 5779 5778 5776 5775 5774 5773 5772 5771 5770 5769 5768 5767 5767 5766 5765 5765 5764 5764 5763 5763 5762 5761 5761 5760 5760 5760 5760 5760 5760 5760 5760 5760
5787 5787 5786 5785 5784 5783 5781 5779 5778 5776 5775 5773 5772 5770 5769 5768 5767 5766 5764 5763 5763 5762 5761 5760 5759 5759 5758 5757 5757 5757 5756 5755 5755 5754 5754 5753 5753 5753 5753 5753 5753 5753 5753
5781 5781 5780 5779 5778 5776 5775 5773 5771 5770 5768 5767 5766 5765 5763 5762 5761 5759 5758 5757 5756 5755 5754 5753 5752 5752 5751 5751 5750 5750 5749 5749 5748 5747 5747 5747 5747 5746 5746 5746 5745 5745 5745
5774 5774 5773 5772 5771 5770 5768 5766 5765 5764 5762 5761 5760 5759 5757 5756 5754 5753 5752 5751 5750 5749 5747 5746 5745 5745 5744 5744 5743 5743 5742 5742 5741 5741 5740 5740 5740 5740 5739 5739 5738 5738 5738
5767 5766 5766 5765 5764 5763 5761 5760 5758 5757 5756 5755 5754 5752 5751 5750 5748 5747 5745 5744 5743 5742 5741 5739 5738 5737 5737 5737 5736 5736 5735 5735 5734 5734 5734 5733 5733 5732 5732 5731 5731 5730 5730
5759 5759 5758 5757 5757 5756 5754 5753 5751 5750 5749 5748 5747 5746 5745 5743 5742 5740 5738 5737 5736 5735 5733 5732 5732 5731 5730 5729 5729 5729 5728 5728 5727 5727 5726 5726 5726 5725 5724 5724 5723 5722 5721
5751 5750 5750 5749 5749 5748 5747 5745 5744 5743 5742 5741 5740 5739 5738 5736 5735 5733 5731 5730 5729 5727 5726 5725 5725 5724 5723 5723 5722 5722 5721 5721 5720 5720 5719 5719 5718 5718 5717 5716 5715 5714 5713
5742 5742 5741 5741 5741 5740 5739 5738 5736 5735 5734 5733 5732 5731 5730 5729 5727 5726 5724 5723 5722 5720 5719 5718 5718 5717 5716 5716 5715 5714 5714 5713 5712 5712 5711 5711 5710 5709 5709 5709 5707 5706 5704